Погода в Солнечном

Россия / Санкт-Петербург и Ленинградская область     60°08′58″N   29°57′10″E
темп.,
°C
ветер,
м/с
пор.,
м/с
влажн.,
%
обл.,
%
осадки,
мм/ч
давл.,
гПа
погр.,
м
3 августа, вт
вт300:00+15с51098100 15.6 993566
03:00+13зсз71397100 22.1 994854
06:00+13з51294100 3.6 995747
09:00+15зюз6118551 4.4 996838
12:00+17зюз711843 1.6 9981022
15:00+18зюз69795 3.3 10001152
18:00+15з610836 1.3 10021093
21:00+13зсз388638 1.4 1005285
4 августа, ср
ср400:00+10з12905 0.1 100728
03:00+10з27866 0.1 1009128
06:00+10з25811 0.0 1010100
09:00+16зюз46540 0.0 1012880
12:00+18зюз56464 0.0 10131877
15:00+18зюз56453 0.0 10141571
18:00+18зюз45475 0.0 1015887
21:00+13зюз237013 0.0 101647
5 августа, чт
чт500:00+12зюз237969 0.0 101652
03:00+13юз237789 0.0 101770
06:00+13ю117385 0.0 101742
09:00+16ю115754 0.0 1018255
12:00+20ююв22376 0.0 10181998
15:00+21вюв123897 0.0 10171767
18:00+18в364693 0.0 1017379
21:00+15всв3762100 0.0 1017187
6 августа, пт
пт600:00+12всв38698 0.0 1017144
03:00+11св387210 0.0 1017125
06:00+12св4108366 0.0 1017251
09:00+17всв47627 0.0 1016508
12:00+21всв58430 0.0 10161781
15:00+21всв59418 0.0 10151892
18:00+20св59425 0.0 10141328
21:00+17всв51353100 0.0 1014512
7 августа, сб
сб700:00+15всв51465100 0.0 1014570
03:00+15всв61570100 0.0 1013796
06:00+14всв71672100 0.0 1012949
09:00+16в71568100 0.3 1012965
12:00+13в81694100 5.6 1011799
15:00+13в81494100 6.1 1011866
18:00+14в71396100 1.0 1010748
21:00+14в51198100 2.0 1010732